Regional Weather Roundup
Issued by NWS

Home | Current Version | Previous Version | Text Only | Print | Product List | Glossary Off
Versions: 1 2 3 4 5 6 7 8 9 10 11 12 13 14 15 16 17 18 19 20 21 22 23 24 25 26 27 28 29 30 31 32 33 34 35 36 37 38 39 40 41 42 43 44 45 46 47 48 49 50

000
ASUS45 KABQ 012310
RWRNM
WEATHER ROUNDUP FOR NEW MEXICO
NATIONAL WEATHER SERVICE ALBUQUERQUE NM
500 PM MDT WED OCT 01 2014

NOTE: "FAIR" MEANS FEW OR NO CLOUDS BELOW 12,000 FEET AGL WITH NO
       SIGNIFICANT WEATHER OR OBSTRUCTIONS TO VISION.

      THIS PRODUCT IS RELEASED AS TWO VERSIONS.  ONE VERSION NEAR
      THE TOP OF THE HOUR CONTAINING PRELIMINARY DATA FROM ALBUQUERQUE
      AND OTHER STATIONS.  A FINAL VERSION WITH ADDITIONAL DATA IS
      ISSUED ABOUT 10 MINUTES AFTER THE HOUR.

NMZ501-503-504-510>518-020000-
NORTHWEST PLATEAU/NORTHCENTRAL MOUNTAINS

CITY           SKY/WX    TMP DP  RH WIND       PRES   REMARKS
FARMINGTON     SUNNY     68  36  30 NW21G26   29.93S
LOS ALAMOS     MOSUNNY   66  28  23 W13G22    29.98S
SANTA FE       MOSUNNY   72  25  17 W13G28    29.92S
TAOS           PTSUNNY   66  28  24 W17G28    29.96S
ANGEL FIRE     FAIR      59  27  29 SW18G25   30.01S

$$
NMZ402-403-502-505>509-020000-
WESTCENTRAL MOUNTAINS/SOUTHWEST MOUNTAINS

CITY           SKY/WX    TMP DP  RH WIND       PRES   REMARKS
GALLUP         PTSUNNY   67  30  25 W17G24    29.99S
GRANTS         SUNNY     70  27  19 W14G21    30.00R
SILVER CITY    SUNNY     73  32  21 W18       29.98S

$$
NMZ407-409-411-412-020000-
SOUTHERN DESERTS

CITY           SKY/WX    TMP DP  RH WIND       PRES   REMARKS
LORDSBURG      FAIR      79  34  19 MISG      29.91S
DEMING         SUNNY     80  31  16 W15G23    29.89F
LAS CRUCES     SUNNY     81  28  14 W18G26    29.90S
HOLLOMAN AFB   SUNNY     82  31  15 SW15      29.84S
ALAMOGORDO     SUNNY     81  32  17 S16       29.87R
T OR C         SUNNY     81  32  17 S17       29.86S

$$
NMZ519>523-020000-
CENTRAL VALLEYS/CENTRAL HIGHLANDS

CITY           SKY/WX    TMP DP  RH WIND       PRES   REMARKS
ALBUQUERQUE    MOSUNNY   77  27  15 W17       29.88F
DOUBLE EAGLE   MOSUNNY   75  28  17 SW17      29.91F
MORIARTY ARPT  FAIR      73  27  18 W14G21    29.95S
CLINES CORNERS SUNNY     68  27  21 W25       29.96S
BELEN          FAIR      79  28  15 W17G23    29.88S
SOCORRO        FAIR      80  30  16 S8        29.86S

$$
NMZ524>526-539-540-020000-
SOUTHCENTRAL MOUNTAINS

CITY           SKY/WX    TMP DP  RH WIND       PRES   REMARKS
RUIDOSO        NOT AVBL

$$
NMZ527>531-020000-
NORTHEAST HIGHLANDS/NORTHEAST PLAINS

CITY           SKY/WX    TMP DP  RH WIND       PRES   REMARKS
LAS VEGAS      MOSUNNY   68  29  23 SW20G25   29.94S
RATON          PTSUNNY   70  29  21 W12G20    29.85S
CLAYTON        SUNNY     75  30  19 S18G24    29.83S

$$
NMZ532>537-020000-
EASTCENTRAL PLAINS

CITY           SKY/WX    TMP DP  RH WIND       PRES   REMARKS
TUCUMCARI      SUNNY     83  38  20 SW13      29.77F
CANNON AFB     SUNNY     81  34  18 SW9       29.83R
CLOVIS AIRPORT   N/A     81  36  19 SW14      29.84S

$$
NMZ028-029-538-020000-
SOUTHEAST PLAINS

CITY           SKY/WX    TMP DP  RH WIND       PRES   REMARKS
ROSWELL        SUNNY     83  43  24 SE13      29.78F
CARLSBAD       SUNNY     86  42  21 SW10      29.78S
HOBBS          SUNNY     82  41  23 SW13      29.83S


$$



USA.gov is the U.S. government's official web portal to all federal, state and local government web resources and services.